map of IPI home
Great Circle Mapper logo
IPI - Airport
Location
City:  Ipiales, Colombia
Name:San Luis
ICAO / IATA:SKIP / IPI

Details
Type:Airport (Aerodrome, Airfield)
Latitude:0°51'43"N (0.861972)
Longitude:77°40'18"W (-77.671724)
Elevation:9765 ft (2976 m)
Variation:3.7°W (WMM2010 magnetic declination)
Runways:1
Longest:5774 × 92 ft (1760 × 28 m), paved

Time
Time Zone:UTC-5
Local Time:

Weather
METAR:SKIP 211800Z 00000KT 9999 VCSH BKN016 14/11 A3044 RMK VCSH/E

Related Locations
Nearby:
Farthest:RGT: 12450 mi / 20037 km
Rengat [Japura], Sumatra, ID

Find:

   beyond  
but within

Other Information
Maps:
NOTAMs:
Links:
Sources:

  
flag of Colombia   

Sectional Chart

Flight Planning
at skyvector.com

Satellite Image

Google Maps Satellite View

 

Copyright © 2004-2014 Karl L. Swartz. All rights reserved.
The Great Circle Mapper name and logo are trademarks of the Great Circle Mapper.
All other trademarks mentioned herein belong to their respective owners.
Please see credits for attibutions and further copyright information.

  Follow gcmap on Facebook Follow gcmap on Twitter

hCard Microformat

Geo Microformat